COSMOS 1275 DEB

Satellite information

Favourite Embed

Satellite Type and Status

DEBRISIN ORBIT

Key statistics

Satellite COSMOS 1275 DEB at a glance.

Uptime

16264

Days in orbit

Revolutions

≈ 14.2

Per day

Orbit

LEO

Low Earth Orbit

Inclination

82.9

Latest

Satellite identification and parameters

Extended collection of information and parameters for COSMOS 1275 DEB.

Object identification

Identified? True

Debris? True

Object name: COSMOS 1275 DEB

International designator: 1981-053HF

Object number (NORAD): 13811

Object ID (CCSDS): 13811

Country: COMMONWEALTH OF INDEPENDENT STATES (CIS)

Current information (Y/N): Y

RCS size: SMALL

Orbital parameters

Period: 101.744 minutes

Inclination: 82.9354 deg

SMA: 7219.374 km

Apoapsis: 848.222 km

Periapsis: 834.256 km

RAAN: 16.1069 deg

Eccentricy: 0.00096723

Argument of periapsis: 317.5852 deg

Mean anomaly: 70.5449 deg

Mean motion: 14.1531607 rev/day

Mean motion (dot): 0.00003462 rev/day2

B* drag term: 0.0017698856 1/REarth

Two-line elements (TLE)

Creation date: Dec. 12, 2025, 10:14 a.m.

Reference frame: TEME

Reference center: EARTH

Epoch: Dec. 12, 2025, 2:23 a.m. UTC

TLE line 0: 0 COSMOS 1275 DEB

TLE line 1: 1 13811U 81053HF 25346.09949488 .00003462 00000-0 17699-2 0 9991

TLE line 2: 2 13811 82.9354 16.1069 0009672 317.5852 70.5449 14.15316070188032

Live tracking on map

Real-time ground track for satellite COSMOS 1275 DEB.

In-orbit conjunctions

A list of the most updated potential collisions computed for object COSMOS 1275 DEB.

Target Orbit TCA Probability of collision Miss distance Type
IRS P2 R/B SSO 2025-09-14 02:01:37 0.00017447 295.0 (m) ROCKET BODY
CZ-6A DEB LEO 2025-06-02 14:10:09 0.0001948777 58.0 (m) DEBRIS
THOR BURNER 2 R/B SSO 2025-02-18 15:49:57 0.0001420357 617.0 (m) ROCKET BODY

Associated space launch

Navigation satellite providing location information for the Tsiklon-B navigation system

COSMOS 1275 DEB was lifted into orbit during the mission ‘Kosmos-3M | Parus 27’, on board a Kosmos-3M space rocket.

The launch took place on June 4, 1981, 3:41 p.m. from 132/2.

For more information about the launch, click the button.

Launch to space Kosmos-3M | Parus 27
Kosmos-3M | Parus 27

Agency: N/A

Status: Launch Successful

Launch date: June 4, 1981, 3:41 p.m. UTC

Rocket: Kosmos-3M

Launch pad: 132/2

Location: Plesetsk Cosmodrome, Russian Federation

...

Latest news about this satellite

There are no fresh news available about this satellite. Check back as we update our databases every day.


Newsletter sign-up

Weekly statistics, charts and insights to help you stay on top of the space industry.